Location: Newark
(15.4608°S, 41.1635°W)
Time: 09:19:23
(UTC+00:00)

Vanguard 3 - Pass Details

Date: 31 July 2021
Orbit: 510 x 3260 km, 33.3° (Epoch: 22 September)

Event Time Altitude Azimuth Distance (km) Brightness Sun altitude
Rises 03:17:13 0° 333° (NNW) 6,877 11.9 -83.2°
Enters shadow 03:20:06 - 339° (NNW) 6,298 11.7 -82.5°
Reaches altitude 10° 03:24:30 10° 349° (N) 5,427 - -81.5°
Maximum altitude 03:33:36 18° 26° (NNE) 4,012 - -79.5°
Drops below altitude 10° 03:40:26 10° 65° (ENE) 3,951 - -77.9°
Sets 03:44:25 0° 83° (E) 4,477 - -77.0°
